Simultaneous Nadir Overpasses (SNOs) Predictions

Prediction of SNOs between METOP-A and TERRA Satellite Orbit:

Table of predicted SNOs for the next 14.0 days since TLE Epoch: 8/31/2012
Index Date (METOP-A) Time (METOP-A) METOP-A Lat,Lon Date (TERRA) Time (TERRA) TERRA Lat,Lon Distance(km) Time Diff (sec)
1 09/01/2012 18:17:59 -81.31, 132.54 09/01/2012 18:18:58 -81.31, 132.35 3.22 59
2 09/01/2012 19:08:40 81.31, -60.09 09/01/2012 19:08:24 81.31, -59.93 2.70 16
3 09/04/2012 13:52:22 -81.31,-161.34 09/04/2012 13:53:13 -81.31,-161.23 1.78 51
4 09/04/2012 14:43:02 81.31, 6.40 09/04/2012 14:42:39 81.31, 6.46 1.14 23
5 09/07/2012 09:26:45 -81.31, -94.78 09/07/2012 09:27:29 -81.30, -94.86 1.68 44
6 09/07/2012 10:17:24 81.32, 73.33 09/07/2012 10:16:54 81.32, 73.18 2.47 30
7 09/10/2012 05:01:08 -81.31, -28.16 09/10/2012 05:01:44 -81.32, -28.16 0.48 36
8 09/10/2012 05:51:48 81.32, 139.52 09/10/2012 05:51:10 81.32, 139.48 0.63 38
9 09/13/2012 00:35:31 -81.31, 38.11 09/13/2012 00:35:59 -81.31, 38.11 0.28 28




NCC Satellite Simultaneous Nadir Overpasses (SNOs) Prediction Service
